INTELSAT 33E DEB, 61991

Orbit data source: Space-Track

INTELSAT 33E DEB, 61991 is space debris in GEO originally from a launch on Wed, 24 Aug 2016 UTC launched from the French Guiana (FRGUI). Debris objects in space refer to the collection of defunct objects orbiting the Earth. Examples of debris include non-operational satellites, rocket bodies, and fragments generated from explosions, collisions, or faulty payload assembly.

Loading next visibility...
Identifier
61991, 2016-053H
Orbit
GEO
Country
Flag of UnknownUnknown / ITSO
Related business
Manufacturer
Boeing/ES
Mission
Spacecraft
Bus & Motor
Unknown
Mass
Unknown
Launch date (UTC)
2016-08-24 (9 years ago)
Launch vehicle
Unknown
Launch site
French Guiana (FRGUI)
Object type
Payload
Rocket body
Debris
Shape & HBR
Unknown shape, 1.1 m
Radar Cross Section
RCS unknown

Expand to show TLE details & history
Last TLE update: 2 days ago

TLE from 2 days ago
0 INTELSAT 33E DEB
1 61991U 16053H   25290.60453992 -.00000081  00000-0  00000-0 0  9997
2 61991   1.0549  99.8116 0116854 241.4529 118.5710  1.02042787  3718
Epoch: 2025-10-17T14:30Z
TLE epoch observation values (Epoch: 2025-10-17T14:30:32.249Z)
Latitude
0.00001°
Longitude
-142.9932°
Altitude
35,532.176 km
Speed
3.075 km/s
True Right ascension
06h 43m 57s
True Declination
0° 00' 00"
Sunlit
Object was in daylight at epoch
Visualization orbit readout
Latitude
Unknown
Longitude
Unknown
Altitude
Unknown
Speed
Unknown
Apparent Right ascension
Unknown
Apparent Declination
Unknown
Sunlit
N/A
Visualization observer readout
Local Sidereal Time
00:15:37
Azimuth
Unknown
Elevation
Unknown
Doppler factor
Unknown
Orbital elements
Apogee altitude
35,785.402 km
Perigee altitude
34,811.388 km
Semi-major axis
41,676.532 km
Eccentricity
0.01169
Inclination
1.0549°
RAAN
99.8116°
Arg. of periapsis
241.4529°
True anomaly
119.73874°
Mean anomaly
118.571°
Eccentric anomaly
119.15569°
Mean motion
0.2551 °/min
Orbital period
1,411.23 mins
BSTAR
0
Loading maneuver chart data...
Computing Atmospheric mass density...
Loading historical data...
Loading historical data...
Loading historical data...
Loading historical data...
Loading historical data...
Loading historical data...
Loading historical data...

Documentation

Showing up to 5 results
|